Погода в Ближней Игуменке

Россия / Белгородская область     50˚36′53″N   36˚42′56″E
темп.,
°C
ветер,
м/с
пор.,
м/с
влажн.,
%
обл.,
%
осадки,
мм/ч
давл.,
гПа
погр.,
м
17 января, вс
вс1700:00−17˚з37950 0.0 1015161
03:00−18˚з34950 0.0 101672
06:00−19˚з33950 0.0 101653
09:00−19˚зсз24950 0.0 101679
12:00−15˚ссз34860 0.0 1016323
15:00−14˚сз128441 0.0 1016358
18:00−16˚с3493100 0.0 1016107
21:00−17˚ссв2394100 0.0 101785
18 января, пн
пн1800:00−16˚св2492100 0.0 1017221
03:00−16˚св2393100 0.0 1017222
06:00−16˚ссв2492100 0.0 1017252
09:00−15˚св2493100 0.0 1018259
12:00−14˚св2291100 0.4 1018306
15:00−13˚св1287100 0.5 1017375
18:00−14˚ссв129698 0.1 101841
21:00−15˚св129698 0.2 101834
19 января, вт
вт1900:00−15˚вюв019694 0.1 101838
03:00−15˚сз119797 0.3 101860
06:00−16˚ссз2396100 0.3 1017173
09:00−16˚сз2396100 0.5 1018183
12:00−15˚зсз338897 0.1 1018400
15:00−14˚зсз359098 0.1 1018488
18:00−17˚сз229495 0.0 101921
21:00−18˚сз229596 0.1 102027
20 января, ср
ср2000:00−19˚сз229587 0.0 102122
03:00−19˚зсз239550 0.0 102334
06:00−19˚зсз23960 0.0 102424
09:00−19˚зсз22950 0.0 102527
12:00−15˚зсз238920 0.0 1026253
15:00−13˚з249157 0.0 1026311
18:00−16˚з229556 0.0 102720
21:00−17˚зюз129532 0.0 102820
21 января, чт
чт2100:00−17˚ююз22950 0.0 102820
03:00−16˚ююз23950 0.0 102923
06:00−16˚ю33940 0.0 102935
09:00−16˚ю36930 0.0 1029108
12:00−11˚ю48860 0.0 1028273
15:00−8˚ю59910 0.0 1026288
18:00−9˚ю5109569 0.0 1026250
21:00−6˚ю5109483 0.1 1025338